Theta_e
325 327 328 327 327 325 324 325 326 322 322 324 323 323 321 319 318 318 317 316 316 317 317 318 320 323 330 332 333 333 332 333 332 330 329 329 330 330 330 331 331 329 329 329
325 326 321 324 325 326 324 326 328 322 321 324 324 324 321 320 320 320 319 318 316 315 315 317 320 322 326 330 332 332 333 332 333 331 330 330 330 330 330 331 331 331 330 329
324 321 320 323 323 327 326 326 325 326 322 323 324 325 322 321 319 319 319 318 318 318 318 317 316 319 322 328 330 331 332 332 331 332 331 331 331 330 330 330 330 330 330 330
323 319 320 322 324 324 327 322 323 323 325 326 322 326 321 318 319 319 319 319 319 319 318 318 318 316 316 323 327 330 331 331 331 331 331 331 331 330 330 330 330 329 329 330
321 320 321 324 323 321 323 319 321 322 325 324 325 325 320 316 317 317 316 315 314 315 316 316 315 316 317 316 321 327 329 330 330 331 331 331 330 331 330 330 330 330 329 329
319 315 319 320 319 320 318 320 321 321 325 327 322 324 320 316 317 316 315 311 313 312 311 310 312 313 314 316 318 319 326 328 329 330 331 331 331 330 330 330 330 329 329 328
319 318 316 319 323 321 321 322 326 327 327 325 319 322 320 314 314 314 315 313 309 308 307 308 308 308 311 311 313 315 319 324 327 329 330 331 331 331 330 330 330 329 329 328
318 320 318 317 322 323 324 323 325 327 326 324 317 322 320 316 315 313 313 311 309 308 308 308 307 309 310 311 311 311 311 312 313 318 325 329 330 331 330 331 330 329 329 329
321 322 317 318 321 322 323 326 321 318 306 315 318 317 314 313 315 312 310 309 309 309 309 308 308 309 310 310 311 311 311 311 311 310 310 314 320 327 329 330 330 330 330 329
316 319 316 318 319 322 323 321 324 321 325 323 318 316 318 315 313 312 309 309 309 309 309 308 307 309 308 309 309 310 310 309 309 310 310 310 311 315 321 328 330 330 330 330
313 317 315 317 322 322 324 323 323 322 316 320 316 314 309 313 312 311 309 308 308 308 309 308 307 306 306 307 307 307 307 308 308 308 309 309 309 310 311 316 322 327 330 330
313 315 318 319 315 314 315 320 317 324 323 316 315 315 311 310 309 308 308 308 307 309 309 308 304 303 303 303 304 305 305 305 304 305 305 307 309 308 309 309 311 316 323 328
314 316 315 318 318 315 316 314 314 314 313 320 323 317 309 310 309 310 309 309 309 310 307 303 301 301 301 302 302 303 303 303 300 301 303 304 304 305 306 306 307 308 312 319
313 313 311 313 312 315 316 315 315 316 319 321 320 318 315 314 313 312 312 311 306 303 303 301 300 300 299 299 299 300 300 299 298 298 299 300 301 301 302 303 304 306 307 311
313 313 312 314 313 315 316 317 315 316 317 320 317 315 313 315 314 313 311 306 305 303 301 300 299 297 297 296 296 297 297 296 295 296 297 297 297 298 299 300 301 302 304 305
313 312 311 311 312 312 314 315 316 314 316 316 314 314 312 313 311 305 304 303 301 300 299 298 296 295 295 293 294 295 294 292 293 294 294 295 295 295 295 296 297 300 302 302
315 307 311 316 310 313 314 312 314 314 315 316 317 314 310 308 303 301 300 299 298 296 295 295 292 292 291 290 292 292 290 290 291 291 292 292 292 292 292 293 294 295 297 299
309 307 303 299 301 311 306 303 310 310 305 302 305 303 302 303 297 295 294 294 293 291 292 291 289 288 287 288 290 286 286 288 288 288 289 289 290 289 288 290 292 293 294 296
306 308 306 309 291 302 305 304 307 309 305 296 299 296 298 297 295 291 290 289 289 288 288 286 286 285 285 287 284 283 284 285 285 286 286 287 285 283 284 287 289 291 292 293
308 307 304 290 297 301 301 302 301 304 305 293 293 291 291 297 304 294 287 286 284 284 283 283 282 282 283 281 280 281 281 281 284 283 284 281 280 281 282 285 288 289 290 291
309 306 300 294 291 297 299 295 297 302 300 288 286 285 286 290 286 285 282 282 280 280 280 280 280 279 278 278 279 278 279 281 279 279 277 277 277 278 280 285 287 288 289 290
307 309 307 300 297 303 285 294 304 291 285 284 282 281 282 282 282 280 279 278 278 278 278 276 276 276 275 275 276 276 277 276 276 274 273 273 274 277 281 282 282 285 288 289
303 301 300 302 300 285 283 284 283 284 283 280 280 279 278 278 277 277 276 276 276 275 274 274 273 273 273 273 273 273 273 273 272 271 271 271 272 273 275 278 282 285 288 289
300 298 298 294 286 282 281 279 278 278 278 276 275 275 275 275 275 274 274 274 273 272 272 271 271 271 270 270 270 270 270 269 269 269 269 270 271 272 273 274 276 278 281 285
293 295 292 287 284 281 279 278 277 276 274 274 274 273 273 273 273 272 272 271 271 270 270 270 269 269 268 268 268 268 268 267 267 267 268 269 270 270 271 272 274 276 279 283
284 291 296 296 285 284 281 276 275 274 273 272 272 272 272 271 271 270 270 269 269 269 269 268 267 267 266 266 266 267 266 266 266 267 268 268 269 270 270 271 272 274 277 281
Wind_Speed
5 5 19 12 9 7 3 4 5 1 1 3 4 10 11 8 10 11 13 9 9 10 17 30 27 36 39 36 37 38 38 44 40 42 39 39 41 39 41 41 39 38 38 38
4 19 9 6 9 9 5 6 8 3 2 1 4 16 16 17 16 16 15 13 11 8 9 17 23 27 36 43 42 39 41 40 45 37 38 35 30 31 38 38 42 42 40 40
16 7 12 10 6 11 12 14 7 4 1 3 4 17 16 21 14 14 15 15 15 17 17 16 19 28 33 33 38 42 43 42 42 44 34 32 29 29 30 36 41 44 43 43
12 14 9 10 13 12 15 9 4 7 3 8 5 10 11 6 16 11 17 18 19 21 17 17 20 18 20 31 38 38 41 44 44 41 35 35 34 31 35 35 32 34 42 46
10 11 16 13 24 15 14 8 9 13 13 2 5 6 10 5 7 13 14 14 16 15 15 13 9 14 18 19 27 36 40 40 40 38 40 37 33 34 33 31 33 35 38 42
4 2 5 9 7 18 7 4 4 5 9 11 19 9 11 8 7 4 5 8 3 1 3 5 8 7 7 8 2 16 28 33 34 33 38 36 36 34 27 29 29 31 34 35
7 9 2 1 11 10 10 7 3 7 7 13 9 10 16 5 10 6 4 2 5 6 6 5 8 11 14 14 10 6 3 17 24 28 34 38 39 37 33 33 32 30 29 33
4 5 11 7 21 13 17 12 4 6 4 2 5 9 8 14 9 9 7 5 3 7 5 6 8 12 14 15 15 13 12 10 8 10 23 32 35 35 33 35 34 31 33 34
6 6 3 9 5 8 9 11 8 3 1 3 5 7 8 10 2 6 11 6 5 5 6 7 9 13 14 19 20 17 16 17 16 15 14 18 24 32 33 33 34 35 35 37
7 3 2 4 5 8 6 8 6 5 5 4 6 7 8 5 8 8 8 8 6 4 5 5 7 12 17 20 23 26 25 24 25 24 21 18 18 21 26 33 33 34 35 38
5 3 2 1 11 12 5 1 7 1 4 6 2 6 6 9 9 13 10 8 8 6 4 4 6 16 21 25 28 28 29 31 33 33 30 26 23 20 20 22 27 33 38 38
6 5 4 4 1 3 3 4 5 4 6 4 1 6 5 8 7 9 8 7 5 4 5 7 13 20 25 28 32 31 30 30 34 35 34 31 28 28 27 25 24 26 30 35
11 5 3 2 1 3 3 6 4 2 1 4 6 3 6 9 6 6 10 6 4 8 10 12 13 14 19 23 25 27 29 29 34 35 35 35 34 33 30 30 30 27 27 28
12 5 8 9 4 6 7 10 11 6 1 1 2 3 11 8 9 7 6 7 9 11 10 9 10 15 19 20 23 24 25 29 36 35 33 32 34 35 34 32 30 29 27 27
10 7 3 0 4 4 7 8 15 11 8 6 3 1 9 6 2 7 5 7 9 10 10 10 9 12 18 22 24 23 25 28 35 35 34 31 34 36 38 37 35 33 31 29
4 5 4 2 4 3 3 8 16 13 11 7 12 10 13 9 3 7 8 9 9 8 9 8 10 15 18 23 23 23 26 30 29 28 32 36 39 40 36 39 41 38 36 33
9 5 4 5 2 5 5 14 12 8 6 10 8 5 8 10 11 7 8 9 8 8 9 10 12 16 20 23 22 23 29 30 27 26 27 30 33 38 41 41 37 38 38 37
8 6 2 3 2 4 4 4 11 8 3 6 8 6 6 10 12 12 12 10 10 11 12 11 17 20 23 22 18 26 27 25 27 28 26 28 29 31 37 38 38 39 37 38
5 5 3 5 4 6 4 2 6 8 4 5 6 4 5 12 10 10 10 10 10 12 14 17 20 23 24 21 28 28 26 26 27 25 29 27 29 36 36 37 35 34 35 35
4 5 4 3 5 8 6 2 5 3 2 5 7 7 6 4 4 2 12 11 13 16 18 22 23 23 23 30 32 30 31 29 26 31 31 35 35 36 36 35 35 36 35 36
5 2 6 4 3 7 5 6 6 6 3 8 9 7 8 4 2 7 11 13 18 17 19 20 21 22 26 29 31 32 31 28 33 35 37 37 34 36 35 33 32 35 36 35
6 6 4 3 2 7 7 2 5 5 7 9 9 7 5 3 6 9 11 13 18 20 25 27 26 26 27 27 29 30 30 36 38 40 38 37 34 31 31 36 38 34 32 32
2 6 5 5 4 4 7 10 7 5 6 4 5 5 4 3 5 8 10 10 17 19 22 23 25 26 24 25 28 30 33 36 40 40 39 37 37 34 30 31 32 32 29 29
2 3 4 5 4 7 8 8 8 9 9 6 6 5 5 5 7 7 9 11 15 20 21 24 26 26 27 28 28 27 31 34 35 37 38 37 37 36 32 31 30 31 29 28
2 5 7 4 6 7 3 6 7 8 7 5 5 6 6 5 6 8 8 12 16 18 20 21 21 23 26 29 31 32 33 35 35 34 34 35 33 34 36 32 31 33 34 31
2 4 5 4 13 3 6 10 7 7 5 4 3 4 7 9 8 10 9 12 14 16 17 19 21 22 25 26 28 31 35 35 36 35 33 33 34 33 33 34 39 31 35 36
Wind_Direction
177 196 223 204 216 240 122 212 219 1 78 341 283 289 288 283 287 287 288 265 259 261 252 246 241 237 235 233 230 225 220 224 222 217 219 224 228 229 233 238 240 240 239 238
175 227 204 178 179 213 214 219 231 274 288 247 293 285 286 283 271 259 255 264 262 259 268 260 249 233 228 231 227 226 225 222 225 219 217 221 226 232 236 237 241 240 238 237
207 216 178 184 179 203 218 220 200 224 350 234 306 284 275 266 257 257 246 236 245 246 252 253 254 244 235 221 222 227 228 226 228 224 220 220 227 235 236 235 238 239 238 239
219 237 188 203 219 195 230 188 199 244 217 258 144 282 272 257 260 253 255 244 241 248 251 247 248 249 246 237 231 228 230 230 230 227 214 215 219 222 230 236 239 237 240 241
211 171 193 191 217 194 240 151 185 220 224 186 195 258 276 289 272 270 270 260 249 255 251 250 248 258 264 259 242 237 235 231 230 225 219 218 220 227 231 233 235 237 239 241
241 355 201 212 156 186 142 106 165 186 218 235 237 215 271 241 220 291 292 331 245 7 71 92 98 104 103 83 94 236 238 236 236 228 228 220 224 228 229 232 233 234 235 237
205 228 263 319 200 182 169 148 209 212 202 232 189 193 236 273 274 211 232 342 67 72 80 97 76 58 46 46 47 39 288 247 244 237 233 230 232 235 230 232 236 236 232 234
198 238 195 210 230 199 195 193 194 222 195 185 129 216 245 228 249 248 182 174 149 92 71 59 57 45 28 21 25 28 29 9 335 286 255 247 242 239 240 239 239 238 236 238
187 227 130 233 241 197 194 211 151 175 8 113 201 266 294 260 201 100 120 142 118 84 72 50 39 34 28 24 18 4 359 3 359 350 330 287 269 255 245 244 242 241 242 243
179 165 225 278 216 220 223 166 169 209 204 207 238 252 225 190 187 141 140 157 143 145 83 57 27 29 22 36 31 26 17 1 352 346 340 336 312 287 272 260 251 245 244 245
137 160 155 320 202 213 203 245 209 144 189 210 194 248 230 201 165 157 169 165 159 139 119 61 34 30 44 44 43 36 28 19 11 7 359 341 337 331 306 286 275 264 256 249
165 161 193 202 338 15 85 213 230 227 195 242 141 264 346 172 145 135 144 140 150 164 85 53 44 43 36 31 27 26 24 17 7 2 359 356 352 344 338 330 310 292 276 264
159 171 136 209 160 185 196 181 164 186 200 218 215 263 357 38 80 118 127 151 131 46 37 47 38 38 32 26 20 17 16 9 3 3 2 357 352 350 345 337 332 324 307 290
149 170 186 210 183 136 196 202 191 154 191 255 316 168 81 32 4 26 56 36 56 56 53 46 37 28 22 21 15 12 8 2 357 357 355 354 352 346 344 343 336 328 322 312
166 187 186 145 168 145 194 184 185 192 185 146 196 329 294 279 261 293 77 73 68 56 47 43 34 20 14 8 4 1 360 356 353 351 349 345 341 343 342 341 341 333 323 315
180 173 163 116 141 131 165 193 196 200 196 196 209 214 181 248 135 84 80 81 70 59 40 25 26 13 10 360 352 353 351 345 345 344 341 341 340 339 337 336 335 333 332 323
158 128 153 185 220 92 282 222 199 198 201 204 206 192 155 149 123 94 80 68 59 42 22 20 11 2 357 347 343 350 340 336 336 335 334 334 334 334 334 331 327 324 326 325
146 111 132 167 84 199 242 309 213 212 80 41 75 36 16 109 100 73 48 36 25 15 10 9 355 350 344 338 345 337 333 331 330 332 332 331 332 330 326 324 322 320 319 317
179 116 129 167 190 295 306 157 148 166 190 34 118 76 62 130 111 66 41 27 21 5 357 351 347 338 334 342 339 335 333 333 329 331 330 331 330 324 322 318 314 312 311 308
102 138 124 84 143 208 232 207 346 130 233 57 89 43 2 210 212 103 8 10 5 355 352 344 341 340 345 341 338 337 335 334 333 332 326 322 321 319 316 313 310 310 307 302
130 96 157 173 205 283 269 325 303 130 179 105 91 60 29 88 8 331 353 350 346 341 341 344 344 344 341 339 339 333 332 332 329 323 321 320 319 315 311 309 309 310 305 303
156 155 166 116 129 268 13 298 195 117 85 105 99 86 85 9 337 343 337 338 340 345 347 347 346 344 341 340 338 331 329 325 324 322 320 318 318 315 310 306 304 304 301 300
201 181 176 187 192 70 25 94 63 76 119 107 101 72 47 24 353 340 337 339 345 342 341 344 340 335 339 340 338 327 322 324 323 322 319 318 315 313 310 306 306 304 302 297
241 157 111 142 161 131 109 84 72 71 87 78 57 50 36 17 3 354 343 348 347 348 347 345 344 341 337 337 333 324 324 324 322 317 317 317 315 315 313 307 303 299 296 294
187 138 122 88 120 111 127 120 124 106 87 73 48 36 27 15 24 8 355 354 350 347 346 346 344 339 335 334 332 332 331 329 323 318 316 316 315 314 312 308 303 298 290 285
195 156 170 194 157 113 126 140 135 122 100 71 41 36 39 34 23 10 3 356 349 343 343 345 341 339 334 334 334 332 334 330 323 319 321 318 315 314 311 309 308 302 295 293